Location: Demmingen
(48.6757°N, 10.4375°E)
Time: 05:47:20
(UTC+00:00)

CZ-2C R/B - Pass Details

Date: 15 August 2024
Orbit: 782 x 869 km, 98.3° (Epoch: 08 September)

Event Time Altitude Azimuth Distance (km) Brightness Sun altitude
Exits shadow 22:54:21 - 90° (E) 3,018 5.5 -27.4°
Reaches altitude 10° 22:57:31 10° 62° (ENE) 2,450 5.3 -27.4°
Maximum altitude 22:58:41 11° 50° (NE) 2,395 5.4 -27.4°
Drops below altitude 10° 22:59:51 10° 37° (NE) 2,440 5.6 -27.5°
Sets 23:04:21 0° 2° (N) 3,354 7.1 -27.5°
